Flag for U.S.A. Weather past 2 weeks in Osage City, Kansas, U.S.A.

Now
76 °F

Broken clouds.


Feels Like: 78 °F
Forecast: 60 / 79 °F
Wind: 15 mph from South

Location: Forbes Field

Current Time: May 5, 2015 at 12:27:48 PM

Latest Report: May 5, 2015 at 11:53 AM


Visibility: 10 mi

Pressure: 30.06 "Hg

Humidity: 54%

Dew point: 58 °F

Location of Osage CityLocation

Historic Weather in Osage City — Graph

°F

Osage City temperature yesterday

Maximum temperature yesterday: 85 °F (at 2:53 PM)
Minimum temperature yesterday: 63 °F (at 6:53 AM)
Average temperature yesterday: 71 °F

Past Weeks' High & Low Weather Summary

 TemperatureHumidityPressure
High86 °F (May 3, 4:53 PM)93% (Apr 25, 5:58 AM)30.19 "Hg (Apr 25, 5:58 AM)
Low40 °F (Apr 22, 6:53 AM)20% (Apr 30, 3:53 PM)29.37 "Hg (Apr 25, 3:53 AM)
Average60 °F57%29.92 "Hg
* Reported Apr 20 10:53 AM — May 5 10:53 AM, Osage City, Weather by CustomWeather, © 2015

Note: Actual official high and low records may vary slightly from our data, if they occured in-between our weather recording intervals... More about our weather records

Advertising

Osage City weather history for previous 24 hours

 ConditionsComfort  
Time TempWeatherWind HumidityBarometerVisibility
10:53 AM
Tue, May 5
75 °FSunny.13 mph58%30.07 "Hg10 mi
9:53 AM71 °FPassing clouds.9 mph68%30.07 "Hg10 mi
8:53 AM69 °FOvercast.10 mph73%30.06 "Hg10 mi
7:53 AM63 °FScattered clouds.5 mph90%30.07 "Hg9 mi
6:53 AM62 °FOvercast.7 mph90%30.05 "Hg10 mi
5:53 AM60 °FPassing clouds.5 mph93%30.03 "Hg10 mi
4:53 AM60 °FPartly cloudy.6 mph93%30.03 "Hg8 mi
3:53 AM61 °FPassing clouds.3 mph90%30.04 "Hg8 mi
2:53 AM62 °FPassing clouds.5 mph90%30.04 "Hg10 mi
1:53 AM62 °FPassing clouds.5 mph90%30.05 "Hg10 mi
12:53 AM62 °FPassing clouds.5 mph93%30.07 "Hg8 mi
11:53 PM
Mon, May 4
63 °FMostly cloudy.5 mph90%30.08 "Hg10 mi
10:53 PM63 °FMostly cloudy.15 mph90%30.14 "Hg10 mi
9:53 PM64 °FThunderstorms. Fog.8 mph87%30.09 "Hg4 mi
8:53 PM66 °FMostly cloudy.8 mph75%30.04 "Hg10 mi
7:53 PM66 °FPartly sunny.6 mph70%30.01 "Hg10 mi
6:53 PM69 °FMostly cloudy.20 mph68%29.98 "Hg10 mi
5:53 PM81 °FPassing clouds.14 mph47%29.93 "Hg10 mi
4:53 PM84 °FPassing clouds.18 mph45%29.91 "Hg10 mi
3:53 PM85 °FScattered clouds.16 mph43%29.93 "Hg10 mi
2:53 PM85 °FSunny.15 mph43%29.96 "Hg10 mi
1:53 PM84 °FSunny.13 mph43%29.98 "Hg10 mi
12:53 PM82 °FSunny.10 mph51%29.99 "Hg10 mi
Weather by CustomWeather, © 2015

See weather overviewHow to use our weather pages